星链-30480 (STARLINK-30480 )

导读

STARLINK-30480是美国SpaceX星链互联网卫星星座的成员,于2023年10月13日发射入轨,归属于美国太空探索技术公司。它是星链低轨互联网星座批量部署的卫星之一,核心任务是为全球范围内用户提供低延迟、高速率的宽带互联网接入服务,进一步完善星链星座的全球覆盖网络。

基本信息
目录编号:
58069
目录名称:
STARLINK-30480
国际标识:
2023-158U
轨道中心:
EARTH
卫星名称:
星链-30480
卫星全名:
星链-30480 (STARLINK-30480 )
卫星状态:
在轨 (已飞行1057 天)
发射日期:
2023-10-13 UTC
国别 :
美国 (US)
星等 :
--
轨道信息
数据来源 国际轨道数据 AOE轨道数据
星历时间 2026-09-03T21:22:05+0800
19小时前
查看轨道信息
2026-09-03T08:00:00+0800
1天前
查看轨道信息
半长轴 6861.205km 6861.111km
偏心率 0.0001393 0.0000231
轨道倾角 43.002° 43.000°
近地点辐角 264.715° 192.322°
升交点赤经 320.333° 323.479°
平近点角 95.354° 341.103°
近地点 482.112km 482.815km
远地点 484.024km 483.133km
周期 94.267分钟 94.265分钟
每日圈数 15.275737 15.276054
详细信息
固有亮度:
5
最大亮度:
0.3
卫星平台:
Starlink v2.0 mini
覆盖范围:
全球
运营商:
太空探索技术公司
运营商所在国:
美国
制造商(研发单位):
太空探索技术公司
制造商所在国:
美国
使用方式:
暂无
卫星简介
星链(Starlink)计划是由太空探索技术公司(SpaceX)提出的一个巨型低轨卫星互联网星座项目,计划在2019年至2024年间在太空搭建由约1.2万颗卫星组成的“星链”网络,其中1584颗将部署在地球上空550千米处的近地轨道,并从2020年开始工作。该卫星仍在工作。
2D轨道图
3D轨道图
轨道高度分析图
轨道倾角分析图
轨道综合分析图
查看轨道综合分析图
交会数据列表
事件ID 空间交会对象 最接近时刻(TCA) 交会距离 交会风险概率(CRP) 交会风险指数(CRI) 操作
CDM_260906-022105-806906-686121
2026-09-06T
02:21:10+0000
0.690 km
远距离
5.846669E-5 中风险 0.7
CDM_260906-004705-806906-686121
2026-09-06T
00:47:01+0000
1.001 km
极远距离
1.732886E-5 中风险 0.6
CDM_260906-035505-806906-686121
2026-09-06T
03:55:19+0000
2.401 km
极远距离
1.300909E-6 低风险 0.37
CDM_260905-231205-806906-686121
2026-09-05T
23:12:51+0000
2.641 km
极远距离
1.108648E-6 低风险 0.36